Location: Staunton
(38.1490°N, 79.0720°W)
Time: 00:50:37
(UTC-04:00)

ISS - Pass Details

Date: 11 May 2021
Orbit: 417 x 422 km, 51.6° (Epoch: 18 May)

Event Time Altitude Azimuth Distance (km) Brightness Sun altitude
Rises 03:49:34 0° 318° (NW) 2,368 0.2 -22.9°
Drops below altitude 10° 03:53:56 10° 11° (N) 1,507 -0.1 -22.3°
Maximum altitude 03:53:58 10° 12° (NNE) 1,507 -0.1 -22.3°
Sets 03:58:22 0° 65° (ENE) 2,368 1.2 -21.7°
